Theta_e
297 299 299 298 298 300 298 298 295 298 299 303 304 305 308 312 313 316 317 318 316 316 314 314 313 313 313 314 314 314 313 312 312 313 311 311 306 306 304 300 300 298 294 293
291 296 298 297 299 299 299 300 300 300 299 307 307 308 307 309 310 313 316 318 319 318 315 314 314 314 313 313 313 313 313 311 313 312 311 306 308 302 301 299 299 294 292 292
287 295 295 291 298 299 300 302 301 298 303 308 306 306 307 309 309 311 315 317 317 317 315 316 315 315 314 314 314 312 312 312 312 312 309 309 305 299 301 300 296 293 293 292
286 290 283 296 304 303 302 303 305 304 306 307 309 311 311 311 310 310 313 313 315 317 315 316 315 314 316 315 314 313 312 313 312 311 309 308 305 300 300 295 295 294 292 293
283 285 291 295 299 300 299 299 306 305 307 309 310 306 307 308 308 310 310 311 314 313 314 314 313 314 314 313 313 312 311 311 310 309 307 307 304 302 299 297 298 296 294 291
285 282 281 294 302 305 304 293 304 307 307 308 306 302 308 307 309 309 309 309 310 311 310 312 313 313 312 311 310 309 310 310 310 308 307 305 304 303 302 301 300 296 292 292
282 281 286 298 302 306 292 295 309 309 308 308 304 309 310 309 309 309 308 308 311 311 310 311 311 312 310 309 309 310 309 308 307 307 306 306 305 304 302 300 299 297 293 292
285 283 280 300 300 295 302 309 309 308 309 306 308 305 308 308 305 305 306 307 308 309 309 309 311 311 309 309 309 309 308 306 306 305 304 303 303 301 300 299 297 295 292 291
289 289 301 305 302 306 309 307 305 307 308 310 306 305 307 305 304 306 306 307 308 308 306 308 309 310 309 308 308 307 306 305 305 303 302 302 301 300 298 297 296 295 292 291
291 295 298 301 305 307 307 308 310 309 305 306 305 304 304 305 305 306 307 307 307 307 306 306 307 306 307 306 307 306 305 304 304 302 300 300 299 299 298 297 296 295 293 292
294 298 301 304 305 307 306 308 307 305 305 305 305 303 304 304 305 304 304 304 305 305 304 303 303 302 305 305 305 304 303 302 302 302 300 300 299 300 298 299 298 296 295 295
293 301 301 301 308 310 308 306 305 303 301 304 305 304 305 304 304 304 303 303 302 302 301 299 298 297 298 300 302 302 300 300 300 301 301 299 299 298 290 289 288 289 290 292
299 304 305 308 309 307 309 308 305 304 304 302 305 305 304 302 303 298 302 301 300 299 299 298 296 295 295 296 297 297 297 297 298 296 298 298 297 296 295 292 287 288 288 289
306 305 305 306 305 308 311 312 311 305 304 304 303 304 303 301 300 300 299 299 299 298 296 296 294 293 293 294 294 294 295 286 295 295 296 295 296 296 296 295 293 292 288 290
305 307 308 309 309 307 303 305 302 301 300 301 303 302 300 299 298 297 298 297 296 295 294 294 293 291 291 292 292 292 292 292 292 293 292 291 293 294 294 294 293 293 288 286
305 308 308 306 306 302 303 302 301 300 301 300 300 300 299 298 297 296 295 295 295 292 292 290 291 288 289 289 290 291 290 284 286 290 290 291 292 291 291 290 290 289 288 288
302 302 304 302 300 302 302 302 301 300 300 300 297 297 296 294 293 292 292 292 292 291 290 290 288 288 287 288 289 290 290 289 283 289 289 289 289 289 289 289 288 288 288 286
306 306 307 305 301 300 299 299 299 298 298 297 296 295 293 292 291 290 290 290 289 288 288 287 286 283 283 286 288 288 288 287 287 287 288 288 288 288 288 287 287 286 286 285
305 302 302 301 300 299 298 298 297 296 294 294 292 291 291 291 291 290 289 286 285 288 286 284 283 285 286 283 286 288 288 287 287 287 287 285 287 287 287 286 286 286 284 283
299 299 299 299 299 298 294 295 295 294 293 291 288 287 286 285 285 285 286 288 288 289 287 287 286 286 285 283 283 288 287 287 286 286 284 286 286 286 286 284 285 284 284 284
299 299 300 299 296 297 295 293 291 288 287 289 288 287 286 285 285 285 287 289 286 286 287 284 287 287 287 285 286 287 287 286 285 285 285 285 284 285 284 284 284 284 284 284
301 297 292 293 293 291 291 293 290 287 287 286 285 285 285 284 285 285 284 290 287 284 286 287 287 281 284 283 287 286 286 285 285 285 285 284 284 283 283 284 283 283 283 283
298 295 293 292 291 290 291 290 288 288 286 286 286 286 288 288 288 289 288 287 289 283 287 286 279 277 278 286 286 285 285 284 284 284 284 284 284 283 283 283 282 281 281 280
294 293 293 291 290 289 287 287 287 287 286 286 285 286 289 288 288 288 288 285 281 282 286 283 279 277 281 285 285 284 284 284 284 283 283 281 283 282 282 281 280 280 280 279
291 291 291 291 290 289 288 288 288 288 289 289 288 288 290 290 292 289 289 287 279 283 283 275 277 278 284 284 284 284 284 284 284 284 283 282 281 281 281 280 280 280 279 280
292 292 292 292 290 290 289 291 290 290 290 288 288 287 287 288 288 287 285 283 283 281 283 281 283 282 283 284 283 283 284 282 283 283 282 281 281 281 280 279 279 279 279 279
291 290 290 289 290 291 291 291 291 291 291 292 291 289 288 287 286 285 283 284 284 283 282 281 282 282 282 282 282 282 283 283 281 281 282 281 281 280 279 279 279 278 278 278
Wind_Speed
23 28 23 17 21 21 21 23 20 25 25 19 18 17 18 18 9 10 13 17 18 18 15 17 16 15 16 16 16 16 16 16 20 15 13 15 15 15 14 13 15 15 14 13
27 29 25 25 31 31 29 28 21 23 27 17 18 15 13 16 11 13 15 17 16 15 14 19 19 18 15 14 13 13 13 17 11 11 12 12 13 13 14 14 15 14 14 15
21 22 18 19 27 26 27 22 22 23 27 16 15 16 17 16 14 15 16 14 14 14 15 12 13 12 14 14 13 15 15 12 13 14 15 14 15 14 15 15 12 14 14 13
15 14 23 20 15 19 18 20 22 23 21 18 18 18 14 12 13 11 10 11 11 11 10 11 12 13 13 14 14 14 15 15 15 16 16 15 16 13 12 11 15 15 15 16
13 18 21 21 19 15 17 27 23 21 20 20 15 4 9 8 5 7 6 5 8 11 6 7 10 11 11 11 11 13 14 14 13 14 14 15 16 16 13 13 15 15 13 14
16 19 31 23 25 20 17 26 20 19 27 20 12 13 9 10 8 8 14 4 8 11 6 7 7 9 10 10 10 11 10 10 11 13 14 15 14 15 14 12 14 10 12 14
21 23 22 16 17 4 16 16 8 12 17 10 12 18 4 10 9 7 10 9 8 9 8 10 9 10 10 8 6 5 6 8 9 10 11 12 11 11 12 12 12 13 12 12
18 24 33 18 25 36 16 16 8 6 8 12 17 7 16 16 12 9 11 12 10 9 8 7 7 8 9 6 5 5 6 7 8 8 7 7 10 9 10 11 12 13 12 10
21 19 11 13 29 30 24 23 10 7 10 8 9 12 15 17 18 14 12 9 8 10 9 6 6 6 7 5 4 5 5 4 5 5 6 6 8 8 8 10 9 9 9 9
28 31 32 30 25 27 29 28 23 11 7 13 10 9 13 11 15 13 11 11 9 10 9 8 6 6 6 6 4 4 3 3 2 3 5 6 5 6 7 9 9 9 9 10
30 29 24 23 31 22 14 18 11 8 10 12 13 17 17 13 13 11 11 10 10 12 12 13 10 10 8 5 4 4 4 2 2 3 5 5 7 7 8 10 10 9 10 9
21 17 21 28 17 22 21 14 9 9 8 12 23 22 17 14 12 13 12 11 12 13 14 12 11 10 8 6 5 5 5 3 1 0 2 3 4 6 11 9 9 12 5 9
30 27 25 22 11 11 6 2 4 9 13 18 14 17 17 15 12 13 13 14 14 14 12 11 10 9 7 6 6 8 6 4 3 2 3 4 4 5 6 5 9 11 14 12
27 25 18 11 10 7 7 10 19 13 12 14 17 14 15 16 14 13 12 13 13 12 11 10 9 8 5 6 7 6 5 4 3 3 3 4 5 6 6 6 5 4 8 10
24 25 24 11 8 9 7 10 16 14 14 13 14 18 18 17 15 13 12 12 12 11 10 9 8 7 6 6 6 6 3 2 3 3 3 4 4 5 5 5 5 3 1 2
20 18 15 11 13 12 12 14 16 15 15 15 16 15 15 16 15 13 11 9 9 8 8 7 8 4 5 5 4 2 1 2 3 3 4 4 3 4 3 3 3 2 2 2
22 17 14 10 12 16 18 18 17 14 14 17 17 17 18 15 13 12 9 8 9 9 8 8 6 4 1 2 1 2 3 4 4 4 4 4 3 4 4 3 3 2 1 4
17 19 19 15 16 14 12 10 15 17 13 15 17 17 16 14 14 10 10 9 9 10 8 6 3 3 2 2 3 3 3 3 4 4 4 5 6 5 4 3 3 2 1 2
13 13 13 15 15 12 11 13 14 16 17 14 17 11 10 12 12 11 9 7 7 7 4 3 3 2 4 3 3 3 4 5 5 5 5 5 6 5 4 4 3 3 3 3
17 20 22 18 20 23 17 13 17 17 14 14 11 12 11 9 9 9 5 6 4 3 6 5 4 4 4 3 1 4 5 6 6 5 5 5 5 4 4 5 4 3 3 3
20 20 21 21 16 16 17 15 15 13 8 9 13 11 11 8 7 8 8 6 5 4 4 4 4 4 3 3 3 4 5 5 5 5 5 4 4 4 5 4 4 4 5 5
17 15 14 15 16 15 15 15 14 11 9 9 11 11 12 9 7 4 2 3 6 7 3 3 3 4 4 3 4 5 5 6 5 4 4 3 4 4 4 4 4 4 5 4
11 14 14 15 17 16 14 14 12 12 12 11 12 10 8 7 7 6 5 5 5 6 4 4 4 6 6 5 5 5 5 5 4 4 3 4 3 3 3 4 4 4 5 4
14 14 14 15 17 17 17 9 10 8 9 7 8 8 11 7 3 2 5 8 7 6 4 4 4 5 4 4 4 5 5 4 3 3 3 3 3 3 4 4 4 4 4 4
15 16 18 18 16 12 15 13 12 10 10 9 8 4 4 2 3 7 7 6 8 6 5 5 7 6 4 4 4 4 4 3 3 3 3 4 4 4 3 4 4 4 4 3
17 12 10 13 13 11 10 8 9 8 9 7 5 4 4 3 6 7 6 7 6 6 5 4 4 4 4 4 4 4 4 3 3 3 4 4 4 4 4 4 4 4 3 3
12 13 11 9 7 8 8 9 10 8 5 6 7 6 5 5 5 6 7 6 5 5 5 5 4 4 4 5 4 4 3 3 3 4 4 4 3 4 3 4 4 3 3 3
Wind_Direction
277 279 264 263 271 265 247 250 247 273 270 274 256 255 254 255 245 206 199 196 192 190 201 196 203 205 201 204 201 197 198 202 213 209 203 197 186 191 191 179 192 187 179 185
269 267 271 282 264 258 249 248 253 270 266 258 259 262 255 248 238 213 212 209 205 198 213 194 197 201 199 203 206 203 209 216 213 209 201 192 197 183 176 191 185 176 184 182
269 268 270 271 244 256 258 245 241 246 254 265 250 237 239 244 231 216 209 202 202 199 188 213 207 188 189 197 186 195 204 211 206 199 200 202 192 188 198 192 175 181 186 187
272 290 249 252 240 259 252 243 235 252 266 261 253 244 242 229 214 209 201 186 208 197 178 186 188 196 191 194 197 199 207 211 207 201 202 198 198 196 187 177 184 189 193 194
254 252 279 275 236 238 235 255 246 247 258 251 249 219 243 218 196 174 201 222 212 178 161 180 199 181 183 188 190 198 208 209 203 196 198 197 199 199 192 182 193 196 192 185
236 246 249 259 251 237 269 265 260 245 251 241 208 236 230 183 176 170 141 172 172 97 119 160 177 157 167 175 185 204 207 204 198 194 200 200 202 199 197 200 206 196 194 195
235 242 254 249 289 194 203 251 202 239 248 203 207 234 189 151 156 163 128 155 135 140 139 141 144 151 149 151 173 190 191 193 194 197 202 207 204 200 195 199 204 205 202 199
232 237 247 220 224 235 265 268 260 258 211 192 219 174 163 162 143 141 137 144 147 133 115 117 135 117 113 132 154 167 176 183 191 193 194 195 195 193 195 199 206 209 207 205
224 233 243 205 225 230 236 243 226 227 236 233 186 187 168 164 147 166 163 144 133 128 124 118 118 112 124 120 114 120 147 172 180 181 193 198 203 195 199 207 211 213 213 219
253 252 253 258 254 237 233 235 231 217 186 172 175 188 164 165 137 155 147 146 140 126 113 95 76 71 70 81 74 86 90 89 133 184 196 201 209 207 208 207 213 214 215 225
251 251 263 252 235 233 211 215 204 196 174 182 176 175 156 162 149 143 140 130 130 118 108 96 89 74 62 86 110 108 101 121 177 212 211 216 222 221 222 226 214 208 217 218
261 257 249 247 250 233 227 213 187 152 147 180 175 169 155 150 143 138 132 127 114 110 110 108 99 87 73 64 85 102 101 92 84 236 243 246 248 255 235 248 215 231 202 202
249 249 254 253 235 186 148 172 310 189 181 161 158 142 141 132 130 124 122 122 119 114 110 107 97 83 59 47 55 54 49 24 8 325 282 270 255 254 269 216 237 226 223 214
243 239 243 228 208 173 144 175 226 217 168 160 134 131 125 122 124 121 118 115 111 110 106 106 97 77 48 43 55 56 49 45 355 333 303 278 265 262 261 261 242 221 226 220
257 237 237 198 171 157 136 190 184 163 143 133 134 130 129 129 121 116 113 110 111 109 107 105 99 72 38 32 48 45 31 356 308 293 308 306 296 286 273 271 273 272 185 163
241 216 212 181 167 158 156 191 175 155 141 133 127 122 117 115 114 111 111 127 125 118 115 101 88 70 42 24 23 18 4 356 344 353 342 338 322 300 312 311 297 270 219 171
229 206 196 167 164 171 183 182 172 144 134 133 125 121 111 108 104 104 109 104 106 107 100 95 98 93 83 30 10 41 31 30 17 26 13 356 354 357 354 338 310 295 251 186
199 187 193 175 185 162 138 134 141 125 119 117 119 112 119 128 127 125 123 124 111 92 80 95 115 129 133 99 61 56 54 46 39 31 21 27 22 23 11 356 16 11 57 127
176 141 134 135 124 110 117 122 103 109 108 109 103 122 120 115 121 125 121 110 107 119 163 173 158 150 102 70 71 80 76 68 60 51 40 33 41 35 24 31 44 61 80 112
114 110 107 112 115 110 95 89 99 99 104 106 120 114 110 107 113 117 117 106 106 106 147 151 145 107 110 109 124 88 84 76 68 65 50 51 48 45 46 43 48 73 89 93
117 119 119 111 109 110 109 110 107 109 103 130 127 130 123 120 111 120 122 123 160 157 131 153 156 151 147 127 114 95 86 86 79 66 59 58 67 65 68 72 71 75 81 86
119 111 110 111 103 103 113 118 118 121 122 112 108 116 118 121 123 112 46 109 142 155 170 165 149 126 121 137 98 90 86 82 81 86 85 78 79 86 85 84 82 82 85 86
118 115 116 117 124 122 122 124 124 135 133 135 139 139 135 146 154 137 142 163 149 176 172 138 132 133 132 109 105 101 90 87 94 95 99 98 98 96 94 98 95 93 94 95
116 113 113 117 122 124 115 102 105 105 113 114 126 140 138 132 91 61 96 139 140 156 115 120 132 123 109 108 113 103 103 111 116 109 100 101 99 102 104 116 105 99 94 95
116 119 122 122 117 109 120 130 125 124 117 112 109 111 112 130 167 165 157 141 130 130 119 98 107 110 113 114 109 114 127 133 135 135 126 124 115 109 105 98 93 94 96 94
119 112 116 124 126 128 132 141 121 131 131 135 142 156 162 151 122 126 120 125 131 124 115 127 116 111 110 122 124 129 134 133 146 126 125 123 119 114 108 102 101 99 95 90
100 109 108 101 106 122 124 129 130 146 148 141 137 169 154 131 121 128 132 134 130 129 117 106 119 130 140 128 116 128 138 117 108 117 114 116 112 108 105 104 102 101 101 99